,,Stat6,,Stat2,,Stat8,,Stat9,,Stat10,,Wind1,,Wind1,
time,status,PA1M_AVG,status,PR1M_SUM,status,RH1M_AVG,status,SR1M_AVG,status,TA1M_AVG,status,W1dAve1m,status,W1sAve1m,
2004-01-25, 00:00:00,VALID,917.451,VALID,0,VALID,73.4402,VALID,0.101885,VALID,20.2139,VALID,108,VALID,1.68914,
2004-01-25, 00:01:00,VALID,917.446,VALID,0,VALID,73.2813,VALID,0.0849042,VALID,20.1881,VALID,104,VALID,1.76325,
2004-01-25, 00:02:00,VALID,917.461,VALID,0,VALID,73.2164,VALID,0.0339617,VALID,20.2035,VALID,131,VALID,2.65412,
2004-01-25, 00:03:00,VALID,917.47,VALID,0,VALID,73.5928,VALID,0.0679233,VALID,20.2231,VALID,73,VALID,1.62571,
2004-01-25, 00:04:00,VALID,917.452,VALID,0,VALID,72.8006,VALID,0.0679233,VALID,20.2174,VALID,123,VALID,2.44085,
2004-01-25, 00:05:00,VALID,917.448,VALID,0,VALID,73.5407,VALID,0.0679233,VALID,20.2499,VALID,107,VALID,2.17351,
2004-01-25, 00:06:00,VALID,917.433,VALID,0,VALID,73.1363,VALID,0.0339617,VALID,20.237,VALID,127,VALID,2.34464,
2004-01-25, 00:07:00,VALID,917.409,VALID,0,VALID,73.9667,VALID,0.0849042,VALID,20.2532,VALID,143,VALID,2.79315,
2004-01-25, 00:08:00,VALID,917.441,VALID,0,VALID,74.7525,VALID,0.0509425,VALID,20.2306,VALID,100,VALID,2.12891,
2004-01-25, 00:09:00,VALID,917.414,VALID,0,VALID,74.9547,VALID,0,VALID,20.169,VALID,132,VALID,2.28609,
2004-01-25, 00:10:00,VALID,917.4,VALID,0,VALID,74.9776,VALID,0.0169808,VALID,20.1369,VALID,120,VALID,2.67816,
2004-01-25, 00:11:00,VALID,917.373,VALID,0,VALID,75.6923,VALID,0.0169808,VALID,20.124,VALID,133,VALID,1.73855,
2004-01-25, 00:12:00,VALID,917.342,VALID,0,VALID,76.2454,VALID,0.101885,VALID,20.0785,VALID,118,VALID,1.69851,
2004-01-25, 00:13:00,VALID,917.328,VALID,0,VALID,76.7668,VALID,0,VALID,20.0058,VALID,126,VALID,2.4288,
2004-01-25, 00:14:00,VALID,917.305,VALID,0,VALID,76.8303,VALID,-0.0169808,VALID,19.9444,VALID,120,VALID,2.46548,
2004-01-25, 00:15:00,VALID,917.292,VALID,0,VALID,77.3593,VALID,-0.0169808,VALID,19.9119,VALID,114,VALID,2.5902,
2004-01-25, 00:16:00,VALID,917.31,VALID,0,VALID,76.0712,VALID,0,VALID,19.8995,VALID,137,VALID,3.54028,
2004-01-25, 00:17:00,VALID,917.311,VALID,0,VALID,76.5366,VALID,-0.0339617,VALID,19.9544,VALID,124,VALID,2.73958,
2004-01-25, 00:18:00,VALID,917.296,VALID,0,VALID,76.7566,VALID,-0.0169808,VALID,19.9444,VALID,123,VALID,2.72656,
2004-01-25, 00:19:00,VALID,917.268,VALID,0,VALID,77.0198,VALID,-0.0339617,VALID,19.9156,VALID,131,VALID,2.33555,
2004-01-25, 00:20:00,VALID,917.255,VALID,0,VALID,76.8876,VALID,-0.0849042,VALID,19.8967,VALID,135,VALID,2.43155,
2004-01-25, 00:21:00,VALID,917.253,VALID,0,VALID,77.8057,VALID,-0.0339617,VALID,19.8699,VALID,120,VALID,2.09115,
2004-01-25, 00:22:00,VALID,917.244,VALID,0,VALID,78.0346,VALID,-0.0509425,VALID,19.7993,VALID,113,VALID,1.68293,
2004-01-25, 00:23:00,VALID,917.214,VALID,0,VALID,77.7167,VALID,-0.0509425,VALID,19.7678,VALID,128,VALID,1.65253,
2004-01-25, 00:24:00,VALID,917.149,VALID,0,VALID,77.648,VALID,-0.0679233,VALID,19.7576,VALID,139,VALID,1.99549,
2004-01-25, 00:25:00,VALID,917.177,VALID,0,VALID,77.7345,VALID,-0.0509425,VALID,19.7638,VALID,120,VALID,2.90551,
2004-01-25, 00:26:00,VALID,917.168,VALID,0,VALID,77.1037,VALID,-0.0339617,VALID,19.7832,VALID,117,VALID,2.58105,
2004-01-25, 00:27:00,VALID,917.151,VALID,0,VALID,77.6925,VALID,-0.0339617,VALID,19.8063,VALID,131,VALID,2.14099,
2004-01-25, 00:28:00,VALID,917.113,VALID,0,VALID,77.456,VALID,-0.0339617,VALID,19.7767,VALID,133,VALID,2.95827,
2004-01-25, 00:29:00,VALID,917.089,VALID,0,VALID,75.2993,VALID,-0.0169808,VALID,19.8418,VALID,121,VALID,3.01916,
2004-01-25, 00:30:00,VALID,917.101,VALID,0,VALID,75.8881,VALID,-0.0509425,VALID,19.9419,VALID,125,VALID,1.85263,
2004-01-25, 00:31:00,VALID,917.075,VALID,0,VALID,76.7134,VALID,-0.0339617,VALID,19.9449,VALID,103,VALID,2.05039,
2004-01-25, 00:32:00,VALID,917.048,VALID,0,VALID,77.5335,VALID,-0.0849042,VALID,19.8935,VALID,153,VALID,2.01563,
2004-01-25, 00:33:00,VALID,917.034,VALID,0,VALID,78.0015,VALID,-0.101885,VALID,19.8582,VALID,121,VALID,1.58033,
2004-01-25, 00:34:00,VALID,917.031,VALID,0,VALID,78.313,VALID,-0.0339617,VALID,19.823,VALID,130,VALID,2.32252,
2004-01-25, 00:35:00,VALID,917.018,VALID,0,VALID,78.8446,VALID,-0.0509425,VALID,19.7646,VALID,142,VALID,2.76217,
2004-01-25, 00:36:00,VALID,917.023,VALID,0,VALID,79.2617,VALID,-0.0339617,VALID,19.7122,VALID,133,VALID,2.29116,
2004-01-25, 00:37:00,VALID,917.004,VALID,0,VALID,79.4219,VALID,-0.0849042,VALID,19.6774,VALID,125,VALID,1.97274,
2004-01-25, 00:38:00,VALID,916.968,VALID,0,VALID,79.3977,VALID,-0.0679233,VALID,19.6419,VALID,137,VALID,1.78434,
2004-01-25, 00:39:00,VALID,916.968,VALID,0,VALID,78.987,VALID,-0.0679233,VALID,19.6294,VALID,132,VALID,2.30729,
2004-01-25, 00:40:00,VALID,916.93,VALID,0,VALID,78.636,VALID,-0.0339617,VALID,19.6642,VALID,145,VALID,2.90183,
2004-01-25, 00:41:00,VALID,916.929,VALID,0,VALID,78.9145,VALID,-0.0679233,VALID,19.7191,VALID,126,VALID,1.77515,
2004-01-25, 00:42:00,VALID,916.909,VALID,0,VALID,79.2451,VALID,-0.0339617,VALID,19.7323,VALID,127,VALID,1.47098,
2004-01-25, 00:43:00,VALID,916.883,VALID,0,VALID,79.0735,VALID,-0.0509425,VALID,19.7,VALID,147,VALID,1.94222,
2004-01-25, 00:44:00,VALID,916.886,VALID,0,VALID,79.4651,VALID,-0.0509425,VALID,19.694,VALID,143,VALID,2.13032,
2004-01-25, 00:45:00,VALID,916.879,VALID,0,VALID,79.3723,VALID,-0.0169808,VALID,19.6679,VALID,147,VALID,1.90825,
2004-01-25, 00:46:00,VALID,916.851,VALID,0,VALID,79.282,VALID,-0.0339617,VALID,19.69,VALID,153,VALID,1.44869,
2004-01-25, 00:47:00,VALID,916.858,VALID,0,VALID,79.6113,VALID,-0.0169808,VALID,19.7169,VALID,144,VALID,1.63654,
2004-01-25, 00:48:00,VALID,916.847,VALID,0,VALID,79.6088,VALID,-0.0339617,VALID,19.6836,VALID,140,VALID,1.92294,
2004-01-25, 00:49:00,VALID,916.826,VALID,0,VALID,80.0157,VALID,0,VALID,19.6543,VALID,137,VALID,1.21437,
2004-01-25, 00:50:00,VALID,916.828,VALID,0,VALID,79.6737,VALID,-0.0169808,VALID,19.6193,VALID,144,VALID,2.11374,
2004-01-25, 00:51:00,VALID,916.793,VALID,0,VALID,79.844,VALID,-0.0169808,VALID,19.6061,VALID,152,VALID,1.84115,
2004-01-25, 00:52:00,VALID,916.798,VALID,0,VALID,78.1668,VALID,-0.0169808,VALID,19.6289,VALID,121,VALID,2.46538,
2004-01-25, 00:53:00,VALID,916.782,VALID,0,VALID,78.2037,VALID,-0.0169808,VALID,19.7579,VALID,118,VALID,2.67492,
2004-01-25, 00:54:00,VALID,916.76,VALID,0,VALID,78.4326,VALID,-0.0169808,VALID,19.7904,VALID,145,VALID,2.67522,
2004-01-25, 00:55:00,VALID,916.76,VALID,0,VALID,77.1165,VALID,-0.0339617,VALID,19.8068,VALID,123,VALID,2.56562,
2004-01-25, 00:56:00,VALID,916.782,VALID,0,VALID,76.2289,VALID,-0.0339617,VALID,19.9164,VALID,128,VALID,2.34108,
2004-01-25, 00:57:00,VALID,916.778,VALID,0,VALID,77.4064,VALID,0,VALID,19.9944,VALID,130,VALID,3.04247,
2004-01-25, 00:58:00,VALID,916.768,VALID,0,VALID,77.4522,VALID,-0.0339617,VALID,19.9653,VALID,133,VALID,3.26097,
2004-01-25, 00:59:00,VALID,916.782,VALID,0,VALID,78.0981,VALID,-0.0509425,VALID,19.9228,VALID,142,VALID,1.94978,
2004-01-25, 01:00:00,VALID,916.745,VALID,0,VALID,78.2367,VALID,-0.0339617,VALID,19.8873,VALID,144,VALID,1.29215,
2004-01-25, 01:01:00,VALID,916.727,VALID,0,VALID,78.589,VALID,-0.0509425,VALID,19.8485,VALID,135,VALID,0.955556,
2004-01-25, 01:02:00,VALID,916.72,VALID,0,VALID,79.2337,VALID,-0.0339617,VALID,19.8098,VALID,134,VALID,1.28782,
2004-01-25, 01:03:00,VALID,916.682,VALID,0,VALID,78.7632,VALID,-0.0169808,VALID,19.7554,VALID,168,VALID,2.09336,
2004-01-25, 01:04:00,VALID,916.651,VALID,0,VALID,78.912,VALID,-0.0169808,VALID,19.7422,VALID,161,VALID,1.20331,
2004-01-25, 01:05:00,VALID,916.607,VALID,0,VALID,79.2655,VALID,-0.0509425,VALID,19.7325,VALID,153,VALID,1.81995,
2004-01-25, 01:06:00,VALID,916.593,VALID,0,VALID,79.3583,VALID,-0.0169808,VALID,19.7134,VALID,126,VALID,2.01848,
2004-01-25, 01:07:00,VALID,916.613,VALID,0,VALID,77.5844,VALID,-0.0339617,VALID,19.7164,VALID,135,VALID,3.40934,
2004-01-25, 01:08:00,VALID,916.596,VALID,0,VALID,77.1826,VALID,-0.0169808,VALID,19.8361,VALID,133,VALID,2.39249,
2004-01-25, 01:09:00,VALID,916.586,VALID,0,VALID,77.1076,VALID,-0.0679233,VALID,19.9096,VALID,144,VALID,1.39169,
2004-01-25, 01:10:00,VALID,916.578,VALID,0,VALID,77.9862,VALID,-0.0169808,VALID,19.9454,VALID,146,VALID,2.23337,
2004-01-25, 01:11:00,VALID,916.536,VALID,0,VALID,78.6513,VALID,-0.0339617,VALID,19.9005,VALID,140,VALID,1.59859,
2004-01-25, 01:12:00,VALID,916.528,VALID,0,VALID,77.8464,VALID,-0.0169808,VALID,19.8458,VALID,141,VALID,2.30378,
2004-01-25, 01:13:00,VALID,916.504,VALID,0,VALID,78.0752,VALID,-0.0169808,VALID,19.849,VALID,120,VALID,1.99695,
2004-01-25, 01:14:00,VALID,916.495,VALID,0,VALID,78.0409,VALID,-0.0509425,VALID,19.8461,VALID,152,VALID,2.05137,
2004-01-25, 01:15:00,VALID,916.458,VALID,0,VALID,77.002,VALID,-0.0509425,VALID,19.8515,VALID,159,VALID,2.18572,
2004-01-25, 01:16:00,VALID,916.466,VALID,0,VALID,77.7561,VALID,0,VALID,19.8967,VALID,110,VALID,1.69833,
2004-01-25, 01:17:00,VALID,916.459,VALID,0,VALID,78.0498,VALID,-0.0509425,VALID,19.8808,VALID,106,VALID,1.9544,
2004-01-25, 01:18:00,VALID,916.454,VALID,0,VALID,78.3003,VALID,-0.0169808,VALID,19.8453,VALID,137,VALID,1.24673,
2004-01-25, 01:19:00,VALID,916.441,VALID,0,VALID,78.5852,VALID,-0.0339617,VALID,19.8066,VALID,89,VALID,0.538542,
2004-01-25, 01:20:00,VALID,916.41,VALID,0,VALID,78.9349,VALID,-0.0169808,VALID,19.7743,VALID,146,VALID,1.22656,
2004-01-25, 01:21:00,VALID,916.381,VALID,0,VALID,78.9832,VALID,-0.0169808,VALID,19.7328,VALID,168,VALID,0.961914,
2004-01-25, 01:22:00,VALID,916.372,VALID,0,VALID,79.1434,VALID,-0.0509425,VALID,19.6903,VALID,134,VALID,1.18118,
2004-01-25, 01:23:00,VALID,916.371,VALID,0,VALID,79.0671,VALID,-0.0339617,VALID,19.6712,VALID,140,VALID,1.74183,
2004-01-25, 01:24:00,VALID,916.348,VALID,0,VALID,78.7098,VALID,-0.0339617,VALID,19.6744,VALID,112,VALID,2.13403,
2004-01-25, 01:25:00,VALID,916.363,VALID,0,VALID,78.9895,VALID,-0.0339617,VALID,19.6863,VALID,122,VALID,1.58249,
2004-01-25, 01:26:00,VALID,916.355,VALID,0,VALID,78.9692,VALID,-0.0509425,VALID,19.6968,VALID,141,VALID,1.74358,
2004-01-25, 01:27:00,VALID,916.341,VALID,0,VALID,78.6004,VALID,-0.0339617,VALID,19.7037,VALID,138,VALID,1.1456,
2004-01-25, 01:28:00,VALID,916.304,VALID,0,VALID,78.6818,VALID,-0.0169808,VALID,19.7099,VALID,182,VALID,2.09466,
2004-01-25, 01:29:00,VALID,916.33,VALID,0,VALID,78.7085,VALID,-0.0509425,VALID,19.7129,VALID,165,VALID,2.391,
2004-01-25, 01:30:00,VALID,916.333,VALID,0,VALID,78.8865,VALID,0,VALID,19.7102,VALID,128,VALID,2.47691,
2004-01-25, 01:31:00,VALID,916.322,VALID,0,VALID,78.7772,VALID,-0.0339617,VALID,19.7127,VALID,137,VALID,2.63699,
2004-01-25, 01:32:00,VALID,916.309,VALID,0,VALID,78.7263,VALID,-0.0339617,VALID,19.7226,VALID,133,VALID,1.80923,
2004-01-25, 01:33:00,VALID,916.314,VALID,0,VALID,78.8446,VALID,-0.0849042,VALID,19.7166,VALID,141,VALID,0.786754,
2004-01-25, 01:34:00,VALID,916.274,VALID,0,VALID,78.7047,VALID,-0.101885,VALID,19.7069,VALID,126,VALID,2.80812,
2004-01-25, 01:35:00,VALID,916.281,VALID,0,VALID,78.4567,VALID,-0.0169808,VALID,19.7132,VALID,159,VALID,2.51261,
2004-01-25, 01:36:00,VALID,916.244,VALID,0,VALID,78.6615,VALID,-0.0339617,VALID,19.7454,VALID,163,VALID,1.57831,
2004-01-25, 01:37:00,VALID,916.221,VALID,0,VALID,78.294,VALID,-0.0339617,VALID,19.7323,VALID,157,VALID,2.23472,
2004-01-25, 01:38:00,VALID,916.222,VALID,0,VALID,78.664,VALID,-0.0849042,VALID,19.7554,VALID,139,VALID,1.24721,
2004-01-25, 01:39:00,VALID,916.233,VALID,0,VALID,78.7212,VALID,-0.0509425,VALID,19.739,VALID,147,VALID,1.61643,
2004-01-25, 01:40:00,VALID,916.207,VALID,0,VALID,78.561,VALID,-0.0339617,VALID,19.7099,VALID,135,VALID,1.99333,
2004-01-25, 01:41:00,VALID,916.191,VALID,0,VALID,78.2876,VALID,-0.0509425,VALID,19.7263,VALID,131,VALID,1.96191,
2004-01-25, 01:42:00,VALID,916.163,VALID,0,VALID,78.2126,VALID,-0.0169808,VALID,19.7648,VALID,135,VALID,2.28051,
2004-01-25, 01:43:00,VALID,916.154,VALID,0,VALID,78.1401,VALID,0.0339617,VALID,19.7735,VALID,161,VALID,1.992,
2004-01-25, 01:44:00,VALID,916.108,VALID,0,VALID,78.1337,VALID,0.0169808,VALID,19.7728,VALID,139,VALID,2.11128,
2004-01-25, 01:45:00,VALID,916.101,VALID,0,VALID,77.9964,VALID,0,VALID,19.7728,VALID,140,VALID,2.37005,
2004-01-25, 01:46:00,VALID,916.094,VALID,0,VALID,78.0396,VALID,0.0509425,VALID,19.7894,VALID,141,VALID,1.8817,
2004-01-25, 01:47:00,VALID,916.1,VALID,0,VALID,78.1744,VALID,0.0339617,VALID,19.7827,VALID,137,VALID,2.46271,
2004-01-25, 01:48:00,VALID,916.07,VALID,0,VALID,77.7624,VALID,0,VALID,19.7862,VALID,148,VALID,2.356,
2004-01-25, 01:49:00,VALID,916.038,VALID,0,VALID,77.9633,VALID,0.0169808,VALID,19.8018,VALID,124,VALID,1.82759,
2004-01-25, 01:50:00,VALID,916.021,VALID,0,VALID,77.6925,VALID,0.0169808,VALID,19.8056,VALID,106,VALID,2.42634,
2004-01-25, 01:51:00,VALID,916.042,VALID,0,VALID,77.6874,VALID,0.0509425,VALID,19.8282,VALID,122,VALID,2.06777,
2004-01-25, 01:52:00,VALID,916.011,VALID,0,VALID,77.7726,VALID,0,VALID,19.8416,VALID,128,VALID,2.52325,
2004-01-25, 01:53:00,VALID,915.996,VALID,0,VALID,77.5679,VALID,0.0169808,VALID,19.8314,VALID,138,VALID,2.22865,
2004-01-25, 01:54:00,VALID,915.976,VALID,0,VALID,77.6149,VALID,0.0169808,VALID,19.8346,VALID,140,VALID,1.90092,
2004-01-25, 01:55:00,VALID,915.93,VALID,0,VALID,77.5539,VALID,0.0169808,VALID,19.854,VALID,140,VALID,3.36223,
2004-01-25, 01:56:00,VALID,915.903,VALID,0,VALID,77.2055,VALID,0,VALID,19.8672,VALID,144,VALID,3.44727,
2004-01-25, 01:57:00,VALID,915.887,VALID,0,VALID,77.2678,VALID,0.0339617,VALID,19.889,VALID,138,VALID,2.8913,
2004-01-25, 01:58:00,VALID,915.874,VALID,0,VALID,77.4509,VALID,0.0339617,VALID,19.893,VALID,144,VALID,2.34941,
2004-01-25, 01:59:00,VALID,915.829,VALID,0,VALID,77.5488,VALID,0.0509425,VALID,19.8694,VALID,135,VALID,2.26786,
2004-01-25, 02:00:00,VALID,915.827,VALID,0,VALID,77.6391,VALID,0.0509425,VALID,19.8602,VALID,160,VALID,1.58194,
2004-01-25, 02:01:00,VALID,915.826,VALID,0,VALID,77.9735,VALID,0,VALID,19.8443,VALID,132,VALID,2.12972,
2004-01-25, 02:02:00,VALID,915.821,VALID,0,VALID,77.929,VALID,0,VALID,19.8088,VALID,145,VALID,1.6101,
2004-01-25, 02:03:00,VALID,915.802,VALID,0,VALID,77.8349,VALID,0.0169808,VALID,19.7924,VALID,139,VALID,1.68477,
2004-01-25, 02:04:00,VALID,915.812,VALID,0,VALID,77.7968,VALID,0,VALID,19.7959,VALID,140,VALID,2.02106,
2004-01-25, 02:05:00,VALID,915.794,VALID,0,VALID,77.723,VALID,0.0169808,VALID,19.8053,VALID,135,VALID,2.48438,
2004-01-25, 02:06:00,VALID,915.796,VALID,0,VALID,77.5488,VALID,0.0339617,VALID,19.8376,VALID,137,VALID,2.60213,
2004-01-25, 02:07:00,VALID,915.789,VALID,0,VALID,77.7205,VALID,0.0509425,VALID,19.8403,VALID,137,VALID,2.40234,
2004-01-25, 02:08:00,VALID,915.784,VALID,0,VALID,77.8553,VALID,0.0339617,VALID,19.8274,VALID,138,VALID,2.20567,
2004-01-25, 02:09:00,VALID,915.75,VALID,0,VALID,77.6175,VALID,0.0169808,VALID,19.8282,VALID,139,VALID,2.9535,
2004-01-25, 02:10:00,VALID,915.726,VALID,0,VALID,77.4,VALID,0.0169808,VALID,19.8475,VALID,135,VALID,3.31076,
2004-01-25, 02:11:00,VALID,915.705,VALID,0,VALID,77.2589,VALID,0.0509425,VALID,19.8764,VALID,126,VALID,2.3402,
2004-01-25, 02:12:00,VALID,915.682,VALID,0,VALID,77.2093,VALID,0.0169808,VALID,19.9124,VALID,135,VALID,2.06476,
2004-01-25, 02:13:00,VALID,915.658,VALID,0,VALID,77.3733,VALID,0.0169808,VALID,19.9149,VALID,142,VALID,2.06436,
2004-01-25, 02:14:00,VALID,915.602,VALID,0,VALID,77.1864,VALID,0.0169808,VALID,19.8957,VALID,152,VALID,2.641,
2004-01-25, 02:15:00,VALID,915.588,VALID,0,VALID,76.9066,VALID,0.0169808,VALID,19.9151,VALID,135,VALID,2.31463,
2004-01-25, 02:16:00,VALID,915.599,VALID,0,VALID,77.2767,VALID,0.0339617,VALID,19.9275,VALID,139,VALID,2.0967,
2004-01-25, 02:17:00,VALID,915.571,VALID,0,VALID,76.9422,VALID,0.0509425,VALID,19.9149,VALID,137,VALID,2.57831,
2004-01-25, 02:18:00,VALID,915.56,VALID,0,VALID,76.9308,VALID,0.0169808,VALID,19.9119,VALID,141,VALID,2.53779,
2004-01-25, 02:19:00,VALID,915.569,VALID,0,VALID,77.0503,VALID,0,VALID,19.935,VALID,138,VALID,2.48892,
2004-01-25, 02:20:00,VALID,915.564,VALID,0,VALID,76.9308,VALID,0,VALID,19.9213,VALID,139,VALID,2.58095,
2004-01-25, 02:21:00,VALID,915.545,VALID,0,VALID,77.0249,VALID,0.0169808,VALID,19.9283,VALID,133,VALID,1.89896,
2004-01-25, 02:22:00,VALID,915.522,VALID,0,VALID,77.2576,VALID,0,VALID,19.9156,VALID,129,VALID,2.14342,
2004-01-25, 02:23:00,VALID,915.478,VALID,0,VALID,77.3517,VALID,0.0169808,VALID,19.8895,VALID,145,VALID,2.00229,
2004-01-25, 02:24:00,VALID,915.433,VALID,0,VALID,77.2462,VALID,0.0169808,VALID,19.8699,VALID,127,VALID,3.18146,
2004-01-25, 02:25:00,VALID,915.401,VALID,0,VALID,77.4407,VALID,0.0509425,VALID,19.8597,VALID,134,VALID,3.15677,
2004-01-25, 02:26:00,VALID,915.396,VALID,0,VALID,77.5056,VALID,0.0339617,VALID,19.8503,VALID,123,VALID,2.52504,
2004-01-25, 02:27:00,VALID,915.4,VALID,0,VALID,77.5526,VALID,0.0339617,VALID,19.8244,VALID,130,VALID,2.35156,
2004-01-25, 02:28:00,VALID,915.399,VALID,0,VALID,77.4382,VALID,0,VALID,19.821,VALID,151,VALID,2.371,
2004-01-25, 02:29:00,VALID,915.407,VALID,0,VALID,77.4318,VALID,0.0339617,VALID,19.8386,VALID,125,VALID,1.76349,
2004-01-25, 02:30:00,VALID,915.398,VALID,0,VALID,77.2004,VALID,0.0169808,VALID,19.8411,VALID,141,VALID,3.19401,
2004-01-25, 02:31:00,VALID,915.38,VALID,0,VALID,77.0783,VALID,0.0169808,VALID,19.8664,VALID,128,VALID,2.52668,
2004-01-25, 02:32:00,VALID,915.376,VALID,0,VALID,77.4331,VALID,0,VALID,19.8669,VALID,121,VALID,2.41962,
2004-01-25, 02:33:00,VALID,915.362,VALID,0,VALID,77.2487,VALID,0,VALID,19.8607,VALID,162,VALID,2.20182,
2004-01-25, 02:34:00,VALID,915.352,VALID,0,VALID,77.077,VALID,0,VALID,19.8441,VALID,151,VALID,1.61166,
2004-01-25, 02:35:00,VALID,915.334,VALID,0,VALID,77.414,VALID,0.0169808,VALID,19.857,VALID,137,VALID,1.54613,
2004-01-25, 02:36:00,VALID,915.334,VALID,0,VALID,77.5895,VALID,0.0169808,VALID,19.8311,VALID,124,VALID,2.49746,
2004-01-25, 02:37:00,VALID,915.295,VALID,0,VALID,77.6683,VALID,0.0509425,VALID,19.8344,VALID,119,VALID,2.33271,
2004-01-25, 02:38:00,VALID,915.286,VALID,0,VALID,77.8476,VALID,0.0339617,VALID,19.7954,VALID,137,VALID,2.1149,
2004-01-25, 02:39:00,VALID,915.286,VALID,0,VALID,78.1363,VALID,0.0339617,VALID,19.7668,VALID,153,VALID,1.61861,
2004-01-25, 02:40:00,VALID,915.281,VALID,0,VALID,78.0842,VALID,0,VALID,19.731,VALID,138,VALID,2.2816,
2004-01-25, 02:41:00,VALID,915.266,VALID,0,VALID,78.0091,VALID,0.0339617,VALID,19.7377,VALID,128,VALID,1.90501,
2004-01-25, 02:42:00,VALID,915.269,VALID,0,VALID,77.8642,VALID,0.0169808,VALID,19.7251,VALID,147,VALID,2.21639,
2004-01-25, 02:43:00,VALID,915.262,VALID,0,VALID,78.1236,VALID,0.0339617,VALID,19.7345,VALID,125,VALID,2.16264,
2004-01-25, 02:44:00,VALID,915.271,VALID,0,VALID,77.882,VALID,0,VALID,19.7412,VALID,111,VALID,2.46418,
2004-01-25, 02:45:00,VALID,915.251,VALID,0,VALID,77.9544,VALID,-0.0169808,VALID,19.7608,VALID,135,VALID,2.92987,
2004-01-25, 02:46:00,VALID,915.229,VALID,0,VALID,77.8069,VALID,0.0169808,VALID,19.7608,VALID,119,VALID,2.15918,
2004-01-25, 02:47:00,VALID,915.2,VALID,0,VALID,77.9583,VALID,0.0169808,VALID,19.7636,VALID,117,VALID,2.11346,
2004-01-25, 02:48:00,VALID,915.18,VALID,0,VALID,78.2965,VALID,0,VALID,19.7444,VALID,144,VALID,1.4215,
2004-01-25, 02:49:00,VALID,915.191,VALID,0,VALID,78.5826,VALID,0,VALID,19.696,VALID,144,VALID,1.64933,
2004-01-25, 02:50:00,VALID,915.159,VALID,0,VALID,78.3499,VALID,0,VALID,19.6702,VALID,107,VALID,2.54469,
2004-01-25, 02:51:00,VALID,915.152,VALID,0,VALID,78.3728,VALID,0,VALID,19.6896,VALID,132,VALID,3.66927,
2004-01-25, 02:52:00,VALID,915.161,VALID,0,VALID,78.2927,VALID,0,VALID,19.7092,VALID,145,VALID,2.73103,
2004-01-25, 02:53:00,VALID,915.113,VALID,0,VALID,78.0193,VALID,0,VALID,19.7281,VALID,136,VALID,2.87936,
2004-01-25, 02:54:00,VALID,915.137,VALID,0,VALID,78.0536,VALID,0,VALID,19.7512,VALID,136,VALID,2.3734,
2004-01-25, 02:55:00,VALID,915.1,VALID,0,VALID,77.868,VALID,-0.0169808,VALID,19.7708,VALID,125,VALID,2.03488,
2004-01-25, 02:56:00,VALID,915.081,VALID,0,VALID,78.0473,VALID,0.0169808,VALID,19.7671,VALID,125,VALID,1.98977,
2004-01-25, 02:57:00,VALID,915.07,VALID,0,VALID,78.3423,VALID,0.0339617,VALID,19.7541,VALID,142,VALID,2.16722,
2004-01-25, 02:58:00,VALID,915.051,VALID,0,VALID,78.2202,VALID,0,VALID,19.7382,VALID,162,VALID,1.90644,
2004-01-25, 02:59:00,VALID,915.041,VALID,0,VALID,77.8514,VALID,0,VALID,19.7574,VALID,156,VALID,1.75986,
2004-01-25, 03:00:00,VALID,915.046,VALID,0,VALID,77.9913,VALID,0,VALID,19.7961,VALID,148,VALID,1.75533,
2004-01-25, 03:01:00,VALID,915.03,VALID,0,VALID,78.0638,VALID,0,VALID,19.7762,VALID,143,VALID,2.11649,
2004-01-25, 03:02:00,VALID,915.01,VALID,0,VALID,78.2355,VALID,0,VALID,19.7733,VALID,129,VALID,2.01656,
2004-01-25, 03:03:00,VALID,915.006,VALID,0,VALID,78.4262,VALID,0.0169808,VALID,19.7673,VALID,130,VALID,2.26847,
2004-01-25, 03:04:00,VALID,914.986,VALID,0,VALID,78.1452,VALID,0,VALID,19.7606,VALID,132,VALID,2.97104,
2004-01-25, 03:05:00,VALID,914.954,VALID,0,VALID,77.8692,VALID,0.0169808,VALID,19.7832,VALID,160,VALID,2.51525,
2004-01-25, 03:06:00,VALID,914.918,VALID,0,VALID,78.1007,VALID,0,VALID,19.819,VALID,137,VALID,2.11919,
2004-01-25, 03:07:00,VALID,914.918,VALID,0,VALID,78.2927,VALID,0.0169808,VALID,19.7929,VALID,166,VALID,1.86364,
2004-01-25, 03:08:00,VALID,914.908,VALID,0,VALID,78.1744,VALID,0.0169808,VALID,19.77,VALID,137,VALID,1.84609,
2004-01-25, 03:09:00,VALID,914.879,VALID,0,VALID,78.4809,VALID,-0.0169808,VALID,19.7671,VALID,118,VALID,1.59908,
2004-01-25, 03:10:00,VALID,914.85,VALID,0,VALID,78.2113,VALID,0.0169808,VALID,19.7437,VALID,122,VALID,1.86228,
2004-01-25, 03:11:00,VALID,914.814,VALID,0,VALID,78.3919,VALID,0.0169808,VALID,19.7671,VALID,117,VALID,2.58203,
2004-01-25, 03:12:00,VALID,914.8,VALID,0,VALID,78.4059,VALID,0.0339617,VALID,19.7603,VALID,137,VALID,2.20803,
2004-01-25, 03:13:00,VALID,914.81,VALID,0,VALID,78.4351,VALID,-0.0849042,VALID,19.7713,VALID,149,VALID,1.74981,
2004-01-25, 03:14:00,VALID,914.792,VALID,0,VALID,78.6538,VALID,-0.0679233,VALID,19.7591,VALID,134,VALID,2.2117,
2004-01-25, 03:15:00,VALID,914.787,VALID,0,VALID,78.8802,VALID,-0.101885,VALID,19.7333,VALID,137,VALID,2.47124,
2004-01-25, 03:16:00,VALID,914.771,VALID,0,VALID,79.001,VALID,-0.0849042,VALID,19.7136,VALID,123,VALID,2.87209,
2004-01-25, 03:17:00,VALID,914.756,VALID,0,VALID,78.912,VALID,-0.0849042,VALID,19.6973,VALID,143,VALID,2.14571,
2004-01-25, 03:18:00,VALID,914.761,VALID,0,VALID,78.7797,VALID,-0.101885,VALID,19.7136,VALID,140,VALID,3.06172,
2004-01-25, 03:19:00,VALID,914.72,VALID,0,VALID,78.9056,VALID,-0.101885,VALID,19.7402,VALID,108,VALID,1.85883,
2004-01-25, 03:20:00,VALID,914.684,VALID,0,VALID,79.1116,VALID,-0.101885,VALID,19.7204,VALID,124,VALID,1.93397,
2004-01-25, 03:21:00,VALID,914.646,VALID,0,VALID,78.8179,VALID,-0.0849042,VALID,19.701,VALID,119,VALID,3.18369,
2004-01-25, 03:22:00,VALID,914.644,VALID,0,VALID,78.6144,VALID,-0.101885,VALID,19.7268,VALID,156,VALID,1.87928,
2004-01-25, 03:23:00,VALID,914.628,VALID,0,VALID,78.4262,VALID,-0.0509425,VALID,19.7494,VALID,135,VALID,2.43803,
2004-01-25, 03:24:00,VALID,914.623,VALID,0,VALID,78.4033,VALID,-0.0849042,VALID,19.768,VALID,150,VALID,2.33575,
2004-01-25, 03:25:00,VALID,914.638,VALID,0,VALID,78.5521,VALID,-0.0679233,VALID,19.7777,VALID,167,VALID,1.83352,
2004-01-25, 03:26:00,VALID,914.632,VALID,0,VALID,78.664,VALID,-0.101885,VALID,19.7683,VALID,116,VALID,2.26853,
2004-01-25, 03:27:00,VALID,914.599,VALID,0,VALID,78.692,VALID,-0.101885,VALID,19.7621,VALID,140,VALID,3.2093,
2004-01-25, 03:28:00,VALID,914.582,VALID,0,VALID,78.6144,VALID,-0.0169808,VALID,19.7772,VALID,146,VALID,2.64788,
2004-01-25, 03:29:00,VALID,914.609,VALID,0,VALID,78.795,VALID,0.0169808,VALID,19.7733,VALID,135,VALID,1.35249,
2004-01-25, 03:30:00,VALID,914.618,VALID,0,VALID,78.9679,VALID,0,VALID,19.7407,VALID,150,VALID,1.4117,
2004-01-25, 03:31:00,VALID,914.623,VALID,0,VALID,79.0696,VALID,0.0339617,VALID,19.7281,VALID,170,VALID,1.48438,
2004-01-25, 03:32:00,VALID,914.614,VALID,0,VALID,79.1091,VALID,0,VALID,19.7025,VALID,127,VALID,3.05966,
2004-01-25, 03:33:00,VALID,914.597,VALID,0,VALID,78.72,VALID,0.0169808,VALID,19.7186,VALID,125,VALID,4.23533,
2004-01-25, 03:34:00,VALID,914.607,VALID,0,VALID,78.8166,VALID,0,VALID,19.7606,VALID,140,VALID,3.24308,